Time,TemperatureF,DewpointF,PressureIn,WindDirection,WindDirectionDegrees,WindSpeedMPH,WindSpeedGustMPH,Humidity,HourlyPrecipIn,Conditions,Clouds,dailyrainin,SoftwareType,DateUTC
2013-05-21 00:00:00,66.5,63.2,29.97,SSE,161,0.0,0.0,89,0.00,,,0.00,Wunderground v.1.15,2013-05-21 04:00:00,
2013-05-21 00:02:00,66.4,63.1,29.98,SSE,161,0.0,0.0,89,0.00,,,0.00,Wunderground v.1.15,2013-05-21 04:02:00,
2013-05-21 00:06:00,66.2,63.2,29.98,SSE,161,0.0,0.0,90,0.00,,,0.00,Wunderground v.1.15,2013-05-21 04:06:00,
2013-05-21 00:08:00,66.1,63.1,29.99,SSE,161,0.0,0.0,90,0.00,,,0.00,Wunderground v.1.15,2013-05-21 04:08:00,
2013-05-21 00:10:00,66.1,63.1,29.99,SSE,161,0.0,0.0,90,0.00,,,0.00,Wunderground v.1.15,2013-05-21 04:10:00,
2013-05-21 00:14:00,65.9,62.9,29.99,SSE,161,0.0,0.0,90,0.00,,,0.00,Wunderground v.1.15,2013-05-21 04:14:00,
2013-05-21 00:16:00,65.9,62.9,29.98,SSE,161,0.0,0.0,90,0.00,,,0.00,Wunderground v.1.15,2013-05-21 04:16:00,
2013-05-21 00:18:00,65.8,62.8,29.99,SSE,161,0.0,0.0,90,0.00,,,0.00,Wunderground v.1.15,2013-05-21 04:18:00,
2013-05-21 00:20:00,65.7,62.7,29.98,SSE,161,0.0,0.0,90,0.00,,,0.00,Wunderground v.1.15,2013-05-21 04:20:00,
2013-05-21 00:22:00,65.7,62.7,29.99,SSE,161,0.0,0.0,90,0.00,,,0.00,Wunderground v.1.15,2013-05-21 04:22:00,
2013-05-21 00:24:00,65.6,62.6,29.99,SSE,161,0.0,0.0,90,0.00,,,0.00,Wunderground v.1.15,2013-05-21 04:24:00,
2013-05-21 00:26:00,65.5,62.5,29.99,SSE,161,0.0,0.0,90,0.00,,,0.00,Wunderground v.1.15,2013-05-21 04:26:00,
2013-05-21 00:30:00,65.4,62.4,29.99,SSE,161,0.0,0.0,90,0.00,,,0.00,Wunderground v.1.15,2013-05-21 04:30:00,
2013-05-21 00:32:00,65.3,62.3,29.99,SSE,161,0.0,0.0,90,0.00,,,0.00,Wunderground v.1.15,2013-05-21 04:32:00,
2013-05-21 00:36:00,65.2,62.5,29.99,SSE,161,0.0,0.0,91,0.00,,,0.00,Wunderground v.1.15,2013-05-21 04:36:00,
2013-05-21 00:38:00,65.1,62.4,29.99,SSE,161,0.0,0.0,91,0.00,,,0.00,Wunderground v.1.15,2013-05-21 04:38:00,
2013-05-21 00:40:00,65.0,62.3,29.99,SSE,161,0.0,0.0,91,0.00,,,0.00,Wunderground v.1.15,2013-05-21 04:40:00,
2013-05-21 00:42:00,65.0,62.3,29.98,SSE,161,0.0,0.0,91,0.00,,,0.00,Wunderground v.1.15,2013-05-21 04:42:00,
2013-05-21 00:46:00,64.9,62.2,29.98,SSE,161,0.0,0.0,91,0.00,,,0.00,Wunderground v.1.15,2013-05-21 04:46:00,
2013-05-21 00:48:00,64.8,62.1,29.98,SSE,161,0.0,0.0,91,0.00,,,0.00,Wunderground v.1.15,2013-05-21 04:48:00,
2013-05-21 00:50:00,64.7,62.0,29.98,SSE,161,0.0,0.0,91,0.00,,,0.00,Wunderground v.1.15,2013-05-21 04:50:00,
2013-05-21 00:52:00,64.7,62.3,29.99,SSE,161,0.0,0.0,92,0.00,,,0.00,Wunderground v.1.15,2013-05-21 04:52:00,
2013-05-21 00:56:00,64.6,62.2,29.98,SSE,161,0.0,0.0,92,0.00,,,0.00,Wunderground v.1.15,2013-05-21 04:56:00,
2013-05-21 00:58:00,64.5,62.1,29.98,SSE,161,0.0,0.0,92,0.00,,,0.00,Wunderground v.1.15,2013-05-21 04:58:00,
2013-05-21 01:00:00,64.5,62.1,29.98,SSE,161,0.0,0.0,92,0.00,,,0.00,Wunderground v.1.15,2013-05-21 05:00:00,
2013-05-21 01:02:00,64.4,62.0,29.98,North,32767,-999.0,0.0,92,0.00,,,0.00,Wunderground v.1.15,2013-05-21 05:02:00,
2013-05-21 01:04:00,64.4,62.0,29.98,North,32767,-999.0,0.0,92,0.00,,,0.00,Wunderground v.1.15,2013-05-21 05:04:00,
2013-05-21 01:06:00,64.3,61.9,29.98,North,32767,-999.0,0.0,92,0.00,,,0.00,Wunderground v.1.15,2013-05-21 05:06:00,
2013-05-21 01:08:00,64.2,61.8,29.97,North,32767,-999.0,0.0,92,0.00,,,0.00,Wunderground v.1.15,2013-05-21 05:08:00,
2013-05-21 01:10:00,64.3,61.9,29.97,North,32767,-999.0,0.0,92,0.00,,,0.00,Wunderground v.1.15,2013-05-21 05:10:00,
2013-05-21 01:12:00,64.3,62.2,29.97,North,32767,-999.0,0.0,93,0.00,,,0.00,Wunderground v.1.15,2013-05-21 05:12:00,
2013-05-21 01:14:00,64.3,62.2,29.97,North,32767,-999.0,0.0,93,0.00,,,0.00,Wunderground v.1.15,2013-05-21 05:14:00,
2013-05-21 01:16:00,64.3,62.2,29.97,North,32767,-999.0,0.0,93,0.00,,,0.00,Wunderground v.1.15,2013-05-21 05:16:00,
2013-05-21 01:18:00,64.4,62.3,29.97,North,32767,-999.0,0.0,93,0.00,,,0.00,Wunderground v.1.15,2013-05-21 05:18:00,
2013-05-21 01:20:00,64.4,62.3,29.97,North,32767,-999.0,0.0,93,0.00,,,0.00,Wunderground v.1.15,2013-05-21 05:20:00,
2013-05-21 01:24:00,64.3,62.2,29.97,North,32767,-999.0,0.0,93,0.00,,,0.00,Wunderground v.1.15,2013-05-21 05:24:00,
2013-05-21 01:26:00,64.3,62.2,29.97,North,32767,-999.0,0.0,93,0.00,,,0.00,Wunderground v.1.15,2013-05-21 05:26:00,
2013-05-21 01:30:00,64.2,62.1,29.97,North,32767,-999.0,0.0,93,0.00,,,0.00,Wunderground v.1.15,2013-05-21 05:30:00,
2013-05-21 01:32:00,64.1,62.0,29.97,North,32767,-999.0,0.0,93,0.00,,,0.00,Wunderground v.1.15,2013-05-21 05:32:00,
2013-05-21 01:35:00,64.0,61.9,29.97,North,32767,-999.0,0.0,93,0.00,,,0.00,Wunderground v.1.15,2013-05-21 05:35:00,
2013-05-21 01:38:00,63.9,61.8,29.97,North,32767,-999.0,0.0,93,0.00,,,0.00,Wunderground v.1.15,2013-05-21 05:38:00,
2013-05-21 01:40:00,63.9,62.1,29.97,North,32767,-999.0,0.0,94,0.00,,,0.00,Wunderground v.1.15,2013-05-21 05:40:00,
2013-05-21 01:44:00,63.9,61.8,29.97,North,32767,-999.0,0.0,93,0.00,,,0.00,Wunderground v.1.15,2013-05-21 05:44:00,
2013-05-21 01:46:00,63.8,61.7,29.97,North,32767,-999.0,0.0,93,0.00,,,0.00,Wunderground v.1.15,2013-05-21 05:46:00,
2013-05-21 01:50:00,63.7,61.6,29.97,North,32767,-999.0,0.0,93,0.00,,,0.00,Wunderground v.1.15,2013-05-21 05:50:00,
2013-05-21 01:52:00,63.7,61.6,29.97,North,32767,-999.0,0.0,93,0.00,,,0.00,Wunderground v.1.15,2013-05-21 05:52:00,
2013-05-21 01:54:00,63.6,61.5,29.97,North,32767,-999.0,0.0,93,0.00,,,0.00,Wunderground v.1.15,2013-05-21 05:54:00,
2013-05-21 01:55:00,63.6,61.5,29.97,North,32767,-999.0,0.0,93,0.00,,,0.00,Wunderground v.1.15,2013-05-21 05:55:00,
2013-05-21 02:00:00,63.5,61.4,29.97,North,32767,-999.0,0.0,93,0.00,,,0.00,Wunderground v.1.15,2013-05-21 06:00:00,
2013-05-21 02:02:00,63.5,61.4,29.97,North,32767,-999.0,0.0,93,0.00,,,0.00,Wunderground v.1.15,2013-05-21 06:02:00,
2013-05-21 02:08:00,63.3,61.2,29.97,North,32767,-999.0,0.0,93,0.00,,,0.00,Wunderground v.1.15,2013-05-21 06:08:00,
2013-05-21 02:10:00,63.2,61.1,29.97,North,32767,-999.0,0.0,93,0.00,,,0.00,Wunderground v.1.15,2013-05-21 06:10:00,
2013-05-21 02:16:00,63.1,61.0,29.97,North,32767,-999.0,0.0,93,0.00,,,0.00,Wunderground v.1.15,2013-05-21 06:16:00,
2013-05-21 02:18:00,63.0,60.9,29.97,North,32767,-999.0,0.0,93,0.00,,,0.00,Wunderground v.1.15,2013-05-21 06:18:00,
2013-05-21 02:21:00,63.0,60.9,29.96,North,32767,-999.0,0.0,93,0.00,,,0.00,Wunderground v.1.15,2013-05-21 06:21:00,
2013-05-21 02:24:00,62.9,61.1,29.96,North,32767,-999.0,0.0,94,0.00,,,0.00,Wunderground v.1.15,2013-05-21 06:24:00,
2013-05-21 02:26:00,62.9,61.1,29.96,North,32767,-999.0,0.0,94,0.00,,,0.00,Wunderground v.1.15,2013-05-21 06:26:00,
2013-05-21 02:28:00,62.8,61.0,29.96,North,32767,-999.0,0.0,94,0.00,,,0.00,Wunderground v.1.15,2013-05-21 06:28:00,
2013-05-21 02:32:00,62.8,61.0,29.96,North,32767,-999.0,0.0,94,0.00,,,0.00,Wunderground v.1.15,2013-05-21 06:32:00,
2013-05-21 02:42:00,62.7,60.9,29.96,North,32767,-999.0,0.0,94,0.00,,,0.00,Wunderground v.1.15,2013-05-21 06:42:00,
2013-05-21 02:44:00,62.7,60.9,29.95,North,32767,-999.0,0.0,94,0.00,,,0.00,Wunderground v.1.15,2013-05-21 06:44:00,
2013-05-21 02:48:00,62.6,60.8,29.95,North,32767,-999.0,0.0,94,0.00,,,0.00,Wunderground v.1.15,2013-05-21 06:48:00,
2013-05-21 02:50:00,62.5,60.7,29.95,North,32767,-999.0,0.0,94,0.00,,,0.00,Wunderground v.1.15,2013-05-21 06:50:00,
2013-05-21 02:52:00,62.5,60.7,29.95,North,32767,-999.0,0.0,94,0.00,,,0.00,Wunderground v.1.15,2013-05-21 06:52:00,
2013-05-21 02:56:00,62.4,60.7,29.95,North,32767,-999.0,0.0,94,0.00,,,0.00,Wunderground v.1.15,2013-05-21 06:56:00,
2013-05-21 02:58:00,62.3,60.6,29.95,North,32767,-999.0,0.0,94,0.00,,,0.00,Wunderground v.1.15,2013-05-21 06:58:00,
2013-05-21 03:04:00,62.2,60.5,29.95,North,32767,-999.0,0.0,94,0.00,,,0.00,Wunderground v.1.15,2013-05-21 07:04:00,
2013-05-21 03:06:00,62.1,60.4,29.95,North,32767,-999.0,0.0,94,0.00,,,0.00,Wunderground v.1.15,2013-05-21 07:06:00,
2013-05-21 03:10:00,62.1,60.4,29.95,North,32767,-999.0,0.0,94,0.00,,,0.00,Wunderground v.1.15,2013-05-21 07:10:00,
2013-05-21 03:12:00,62.0,60.3,29.95,North,32767,-999.0,0.0,94,0.00,,,0.00,Wunderground v.1.15,2013-05-21 07:12:00,
2013-05-21 03:16:00,61.8,60.1,29.95,North,32767,-999.0,0.0,94,0.00,,,0.00,Wunderground v.1.15,2013-05-21 07:16:00,
2013-05-21 03:18:00,61.8,60.1,29.94,North,32767,-999.0,0.0,94,0.00,,,0.00,Wunderground v.1.15,2013-05-21 07:18:00,
2013-05-21 03:26:00,61.6,59.9,29.94,North,32767,-999.0,0.0,94,0.00,,,0.00,Wunderground v.1.15,2013-05-21 07:26:00,
2013-05-21 03:32:00,61.4,59.7,29.94,North,32767,-999.0,0.0,94,0.00,,,0.00,Wunderground v.1.15,2013-05-21 07:32:00,
2013-05-21 03:34:00,61.4,59.7,29.94,North,32767,-999.0,0.0,94,0.00,,,0.00,Wunderground v.1.15,2013-05-21 07:34:00,
2013-05-21 03:36:00,61.3,59.6,29.94,North,32767,-999.0,0.0,94,0.00,,,0.00,Wunderground v.1.15,2013-05-21 07:36:00,
2013-05-21 03:46:00,61.2,59.5,29.94,North,32767,-999.0,0.0,94,0.00,,,0.00,Wunderground v.1.15,2013-05-21 07:46:00,
2013-05-21 03:48:00,61.2,59.5,29.94,North,32767,-999.0,0.0,94,0.00,,,0.00,Wunderground v.1.15,2013-05-21 07:48:00,
2013-05-21 03:50:00,61.2,59.5,29.94,North,32767,-999.0,0.0,94,0.00,,,0.00,Wunderground v.1.15,2013-05-21 07:50:00,
2013-05-21 03:52:00,61.1,59.4,29.94,North,32767,-999.0,0.0,94,0.00,,,0.00,Wunderground v.1.15,2013-05-21 07:52:00,
2013-05-21 03:58:00,61.0,59.3,29.94,North,32767,-999.0,0.0,94,0.00,,,0.00,Wunderground v.1.15,2013-05-21 07:58:00,
2013-05-21 03:59:00,61.0,59.3,29.94,North,32767,-999.0,0.0,94,0.00,,,0.00,Wunderground v.1.15,2013-05-21 07:59:00,
2013-05-21 04:02:00,61.0,59.3,29.95,North,32767,-999.0,0.0,94,0.00,,,0.00,Wunderground v.1.15,2013-05-21 08:02:00,
2013-05-21 04:04:00,61.0,59.3,29.95,North,32767,-999.0,0.0,94,0.00,,,0.00,Wunderground v.1.15,2013-05-21 08:04:00,
2013-05-21 04:06:00,60.9,59.2,29.95,North,32767,-999.0,0.0,94,0.00,,,0.00,Wunderground v.1.15,2013-05-21 08:06:00,
2013-05-21 04:10:00,60.9,59.2,29.94,North,32767,-999.0,0.0,94,0.00,,,0.00,Wunderground v.1.15,2013-05-21 08:10:00,
2013-05-21 04:12:00,60.9,59.2,29.94,North,32767,-999.0,0.0,94,0.00,,,0.00,Wunderground v.1.15,2013-05-21 08:12:00,
2013-05-21 04:18:00,60.8,59.1,29.94,North,32767,-999.0,0.0,94,0.00,,,0.00,Wunderground v.1.15,2013-05-21 08:18:00,
2013-05-21 04:22:00,60.7,59.0,29.94,North,32767,-999.0,0.0,94,0.00,,,0.00,Wunderground v.1.15,2013-05-21 08:22:00,
2013-05-21 04:24:00,60.6,58.9,29.94,North,32767,-999.0,0.0,94,0.00,,,0.00,Wunderground v.1.15,2013-05-21 08:24:00,
2013-05-21 04:26:00,60.6,58.9,29.94,North,32767,-999.0,0.0,94,0.00,,,0.00,Wunderground v.1.15,2013-05-21 08:26:00,
2013-05-21 04:30:00,60.5,58.8,29.94,North,32767,-999.0,0.0,94,0.00,,,0.00,Wunderground v.1.15,2013-05-21 08:30:00,
2013-05-21 04:32:00,60.4,58.7,29.94,North,32767,-999.0,0.0,94,0.00,,,0.00,Wunderground v.1.15,2013-05-21 08:32:00,
2013-05-21 04:34:00,60.4,58.7,29.94,North,32767,-999.0,0.0,94,0.00,,,0.00,Wunderground v.1.15,2013-05-21 08:34:00,
2013-05-21 04:36:00,60.4,58.7,29.94,North,32767,-999.0,0.0,94,0.00,,,0.00,Wunderground v.1.15,2013-05-21 08:36:00,
2013-05-21 04:40:00,60.3,58.6,29.94,North,32767,-999.0,0.0,94,0.00,,,0.00,Wunderground v.1.15,2013-05-21 08:40:00,
2013-05-21 04:42:00,60.3,58.6,29.94,North,32767,-999.0,0.0,94,0.00,,,0.00,Wunderground v.1.15,2013-05-21 08:42:00,
2013-05-21 04:44:00,60.2,58.5,29.94,North,32767,-999.0,0.0,94,0.00,,,0.00,Wunderground v.1.15,2013-05-21 08:44:00,
2013-05-21 04:45:00,60.2,58.5,29.94,North,32767,-999.0,0.0,94,0.00,,,0.00,Wunderground v.1.15,2013-05-21 08:45:00,
2013-05-21 04:48:00,60.2,58.5,29.94,North,32767,-999.0,0.0,94,0.00,,,0.00,Wunderground v.1.15,2013-05-21 08:48:00,
2013-05-21 04:52:00,60.2,58.5,29.95,North,32767,-999.0,0.0,94,0.00,,,0.00,Wunderground v.1.15,2013-05-21 08:52:00,
2013-05-21 04:54:00,60.2,58.8,29.95,North,32767,-999.0,0.0,95,0.00,,,0.00,Wunderground v.1.15,2013-05-21 08:54:00,
2013-05-21 04:58:00,60.2,58.8,29.95,North,32767,-999.0,0.0,95,0.00,,,0.00,Wunderground v.1.15,2013-05-21 08:58:00,
2013-05-21 05:00:00,60.2,58.8,29.95,North,32767,-999.0,0.0,95,0.00,,,0.00,Wunderground v.1.15,2013-05-21 09:00:00,
2013-05-21 05:02:00,60.2,58.8,29.95,North,32767,-999.0,0.0,95,0.00,,,0.00,Wunderground v.1.15,2013-05-21 09:02:00,
2013-05-21 05:04:00,60.1,58.7,29.95,North,32767,-999.0,0.0,95,0.00,,,0.00,Wunderground v.1.15,2013-05-21 09:04:00,
2013-05-21 05:06:00,60.1,58.7,29.95,North,32767,-999.0,0.0,95,0.00,,,0.00,Wunderground v.1.15,2013-05-21 09:06:00,
2013-05-21 05:08:00,60.2,58.8,29.95,North,32767,-999.0,0.0,95,0.00,,,0.00,Wunderground v.1.15,2013-05-21 09:08:00,
2013-05-21 05:12:00,60.2,58.8,29.95,North,32767,-999.0,0.0,95,0.00,,,0.00,Wunderground v.1.15,2013-05-21 09:12:00,
2013-05-21 05:14:00,60.2,58.8,29.95,North,32767,-999.0,0.0,95,0.00,,,0.00,Wunderground v.1.15,2013-05-21 09:14:00,
2013-05-21 05:16:00,60.2,58.8,29.95,North,32767,-999.0,0.0,95,0.00,,,0.00,Wunderground v.1.15,2013-05-21 09:16:00,
2013-05-21 05:18:00,60.2,58.8,29.95,North,32767,-999.0,0.0,95,0.00,,,0.00,Wunderground v.1.15,2013-05-21 09:18:00,
2013-05-21 05:19:00,60.2,58.8,29.95,North,32767,-999.0,0.0,95,0.00,,,0.00,Wunderground v.1.15,2013-05-21 09:19:00,
2013-05-21 05:24:00,60.2,58.8,29.95,North,32767,-999.0,0.0,95,0.00,,,0.00,Wunderground v.1.15,2013-05-21 09:24:00,
2013-05-21 05:26:00,60.2,58.8,29.95,North,32767,-999.0,0.0,95,0.00,,,0.00,Wunderground v.1.15,2013-05-21 09:26:00,
2013-05-21 05:29:00,60.2,58.8,29.96,North,32767,-999.0,0.0,95,0.00,,,0.00,Wunderground v.1.15,2013-05-21 09:29:00,
2013-05-21 05:34:00,60.1,58.7,29.96,North,32767,-999.0,0.0,95,0.00,,,0.00,Wunderground v.1.15,2013-05-21 09:34:00,
2013-05-21 05:38:00,60.1,58.7,29.96,North,32767,-999.0,0.0,95,0.00,,,0.00,Wunderground v.1.15,2013-05-21 09:38:00,
2013-05-21 05:39:00,60.1,58.7,29.96,North,32767,-999.0,0.0,95,0.00,,,0.00,Wunderground v.1.15,2013-05-21 09:39:00,
2013-05-21 05:42:00,60.1,58.7,29.96,North,32767,-999.0,0.0,95,0.00,,,0.00,Wunderground v.1.15,2013-05-21 09:42:00,
2013-05-21 05:44:00,60.1,58.7,29.96,North,32767,-999.0,0.0,95,0.00,,,0.00,Wunderground v.1.15,2013-05-21 09:44:00,
2013-05-21 05:46:00,60.0,58.6,29.96,North,32767,-999.0,0.0,95,0.00,,,0.00,Wunderground v.1.15,2013-05-21 09:46:00,
2013-05-21 05:48:00,60.0,58.6,29.96,North,32767,-999.0,0.0,95,0.00,,,0.00,Wunderground v.1.15,2013-05-21 09:48:00,
2013-05-21 05:49:00,60.0,58.6,29.97,North,32767,-999.0,0.0,95,0.00,,,0.00,Wunderground v.1.15,2013-05-21 09:49:00,
2013-05-21 05:54:00,60.0,58.6,29.97,North,32767,-999.0,0.0,95,0.00,,,0.00,Wunderground v.1.15,2013-05-21 09:54:00,
2013-05-21 05:58:00,60.0,58.6,29.97,North,32767,-999.0,0.0,95,0.00,,,0.00,Wunderground v.1.15,2013-05-21 09:58:00,
2013-05-21 06:00:00,59.9,58.5,29.97,North,32767,-999.0,0.0,95,0.00,,,0.00,Wunderground v.1.15,2013-05-21 10:00:00,
2013-05-21 06:02:00,59.9,58.5,29.97,North,32767,-999.0,0.0,95,0.00,,,0.00,Wunderground v.1.15,2013-05-21 10:02:00,
2013-05-21 06:04:00,59.9,58.5,29.96,North,32767,-999.0,0.0,95,0.00,,,0.00,Wunderground v.1.15,2013-05-21 10:04:00,
2013-05-21 06:06:00,59.9,58.5,29.97,North,32767,-999.0,0.0,95,0.00,,,0.00,Wunderground v.1.15,2013-05-21 10:06:00,
2013-05-21 06:10:00,59.8,58.4,29.97,North,32767,-999.0,0.0,95,0.00,,,0.00,Wunderground v.1.15,2013-05-21 10:10:00,
2013-05-21 06:14:00,59.8,58.4,29.97,North,32767,-999.0,0.0,95,0.00,,,0.00,Wunderground v.1.15,2013-05-21 10:14:00,
2013-05-21 06:15:00,59.8,58.4,29.97,North,32767,-999.0,0.0,95,0.00,,,0.00,Wunderground v.1.15,2013-05-21 10:15:00,
2013-05-21 06:22:00,59.9,58.8,29.97,North,32767,-999.0,0.0,96,0.00,,,0.00,Wunderground v.1.15,2013-05-21 10:22:00,
2013-05-21 06:24:00,60.0,58.9,29.97,North,32767,-999.0,0.0,96,0.00,,,0.00,Wunderground v.1.15,2013-05-21 10:24:00,
2013-05-21 06:28:00,60.1,59.0,29.97,North,32767,-999.0,0.0,96,0.00,,,0.00,Wunderground v.1.15,2013-05-21 10:28:00,
2013-05-21 06:30:00,60.2,59.1,29.97,North,32767,-999.0,0.0,96,0.00,,,0.00,Wunderground v.1.15,2013-05-21 10:30:00,
2013-05-21 06:34:00,60.3,59.2,29.97,North,32767,-999.0,0.0,96,0.00,,,0.00,Wunderground v.1.15,2013-05-21 10:34:00,
2013-05-21 06:38:00,60.5,59.4,29.97,North,32767,-999.0,0.0,96,0.00,,,0.00,Wunderground v.1.15,2013-05-21 10:38:00,
2013-05-21 06:41:00,60.8,59.9,29.98,North,32767,-999.0,0.0,97,0.00,,,0.00,Wunderground v.1.15,2013-05-21 10:41:00,
2013-05-21 06:44:00,60.9,60.0,29.97,North,32767,-999.0,0.0,97,0.00,,,0.00,Wunderground v.1.15,2013-05-21 10:44:00,
2013-05-21 06:46:00,61.0,60.1,29.97,North,32767,-999.0,0.0,97,0.00,,,0.00,Wunderground v.1.15,2013-05-21 10:46:00,
2013-05-21 06:50:00,61.3,60.4,29.97,North,32767,-999.0,0.0,97,0.00,,,0.00,Wunderground v.1.15,2013-05-21 10:50:00,
2013-05-21 06:51:00,61.4,60.5,29.97,North,32767,-999.0,0.0,97,0.00,,,0.00,Wunderground v.1.15,2013-05-21 10:51:00,
2013-05-21 06:54:00,61.5,60.6,29.98,North,32767,-999.0,0.0,97,0.00,,,0.00,Wunderground v.1.15,2013-05-21 10:54:00,
2013-05-21 06:56:00,61.6,60.7,29.98,North,32767,-999.0,0.0,97,0.00,,,0.00,Wunderground v.1.15,2013-05-21 10:56:00,
2013-05-21 07:00:00,61.8,60.9,29.97,North,32767,-999.0,0.0,97,0.00,,,0.00,Wunderground v.1.15,2013-05-21 11:00:00,
2013-05-21 07:01:00,62.0,61.1,29.97,North,32767,-999.0,0.0,97,0.00,,,0.00,Wunderground v.1.15,2013-05-21 11:01:00,
2013-05-21 07:04:00,62.1,61.2,29.97,North,32767,-999.0,0.0,97,0.00,,,0.00,Wunderground v.1.15,2013-05-21 11:04:00,
2013-05-21 07:06:00,62.2,61.3,29.97,North,32767,-999.0,0.0,97,0.00,,,0.00,Wunderground v.1.15,2013-05-21 11:06:00,
2013-05-21 07:08:00,62.3,61.4,29.97,North,32767,-999.0,0.0,97,0.00,,,0.00,Wunderground v.1.15,2013-05-21 11:08:00,
2013-05-21 07:12:00,62.6,61.7,29.97,North,32767,-999.0,0.0,97,0.00,,,0.00,Wunderground v.1.15,2013-05-21 11:12:00,
2013-05-21 07:14:00,62.7,62.1,29.97,North,32767,-999.0,0.0,98,0.00,,,0.00,Wunderground v.1.15,2013-05-21 11:14:00,
2013-05-21 07:16:00,62.8,62.2,29.97,North,32767,-999.0,0.0,98,0.00,,,0.00,Wunderground v.1.15,2013-05-21 11:16:00,
2013-05-21 07:18:00,62.9,62.3,29.97,North,32767,-999.0,0.0,98,0.00,,,0.00,Wunderground v.1.15,2013-05-21 11:18:00,
2013-05-21 07:20:00,63.0,62.1,29.97,North,32767,-999.0,0.0,97,0.00,,,0.00,Wunderground v.1.15,2013-05-21 11:20:00,
2013-05-21 07:24:00,63.1,62.2,29.97,North,32767,-999.0,0.0,97,0.00,,,0.00,Wunderground v.1.15,2013-05-21 11:24:00,
2013-05-21 07:25:00,63.2,62.3,29.97,North,32767,-999.0,0.0,97,0.00,,,0.00,Wunderground v.1.15,2013-05-21 11:25:00,
2013-05-21 07:30:00,63.4,62.8,29.97,North,32767,-999.0,0.0,98,0.00,,,0.00,Wunderground v.1.15,2013-05-21 11:30:00,
2013-05-21 07:32:00,63.5,62.9,29.97,North,32767,-999.0,0.0,98,0.00,,,0.00,Wunderground v.1.15,2013-05-21 11:32:00,
2013-05-21 07:34:00,63.6,63.0,29.97,North,32767,-999.0,0.0,98,0.00,,,0.00,Wunderground v.1.15,2013-05-21 11:34:00,
2013-05-21 07:35:00,63.6,63.0,29.97,North,32767,-999.0,0.0,98,0.00,,,0.00,Wunderground v.1.15,2013-05-21 11:35:00,
2013-05-21 07:38:00,63.7,63.1,29.97,North,32767,-999.0,0.0,98,0.00,,,0.00,Wunderground v.1.15,2013-05-21 11:38:00,
2013-05-21 07:40:00,63.8,63.2,29.96,North,32767,-999.0,0.0,98,0.00,,,0.00,Wunderground v.1.15,2013-05-21 11:40:00,
2013-05-21 07:44:00,64.1,63.5,29.96,North,32767,-999.0,0.0,98,0.00,,,0.00,Wunderground v.1.15,2013-05-21 11:44:00,
2013-05-21 07:46:00,64.3,63.7,29.96,North,32767,-999.0,0.0,98,0.00,,,0.00,Wunderground v.1.15,2013-05-21 11:46:00,
2013-05-21 07:48:00,64.5,63.9,29.97,North,32767,-999.0,0.0,98,0.00,,,0.00,Wunderground v.1.15,2013-05-21 11:48:00,
2013-05-21 07:52:00,64.8,64.2,29.97,North,32767,-999.0,0.0,98,0.00,,,0.00,Wunderground v.1.15,2013-05-21 11:52:00,
2013-05-21 07:54:00,64.9,64.3,29.97,North,32767,-999.0,0.0,98,0.00,,,0.00,Wunderground v.1.15,2013-05-21 11:54:00,
2013-05-21 07:56:00,65.0,64.4,29.97,North,32767,-999.0,0.0,98,0.00,,,0.00,Wunderground v.1.15,2013-05-21 11:56:00,
2013-05-21 08:01:00,65.3,64.7,29.97,North,32767,-999.0,0.0,98,0.00,,,0.00,Wunderground v.1.15,2013-05-21 12:01:00,
2013-05-21 08:04:00,65.3,64.7,29.97,North,32767,-999.0,0.0,98,0.00,,,0.00,Wunderground v.1.15,2013-05-21 12:04:00,
2013-05-21 08:06:00,65.4,64.8,29.97,North,32767,-999.0,0.0,98,0.00,,,0.00,Wunderground v.1.15,2013-05-21 12:06:00,
2013-05-21 08:08:00,65.5,64.9,29.97,North,32767,-999.0,0.0,98,0.00,,,0.00,Wunderground v.1.15,2013-05-21 12:08:00,
2013-05-21 08:10:00,65.5,64.9,29.97,North,32767,-999.0,0.0,98,0.00,,,0.00,Wunderground v.1.15,2013-05-21 12:10:00,
2013-05-21 08:12:00,65.6,65.0,29.97,North,32767,-999.0,0.0,98,0.00,,,0.00,Wunderground v.1.15,2013-05-21 12:12:00,
2013-05-21 08:14:00,65.6,65.0,29.97,North,32767,-999.0,0.0,98,0.00,,,0.00,Wunderground v.1.15,2013-05-21 12:14:00,
2013-05-21 08:18:00,65.7,65.1,29.97,North,32767,-999.0,0.0,98,0.00,,,0.00,Wunderground v.1.15,2013-05-21 12:18:00,
2013-05-21 08:20:00,65.8,65.2,29.97,North,32767,-999.0,0.0,98,0.00,,,0.00,Wunderground v.1.15,2013-05-21 12:20:00,
2013-05-21 08:24:00,65.9,65.3,29.97,North,32767,-999.0,0.0,98,0.00,,,0.00,Wunderground v.1.15,2013-05-21 12:24:00,
2013-05-21 08:26:00,66.0,65.4,29.97,North,32767,-999.0,0.0,98,0.00,,,0.00,Wunderground v.1.15,2013-05-21 12:26:00,
2013-05-21 08:28:00,66.0,65.4,29.97,North,32767,-999.0,0.0,98,0.00,,,0.00,Wunderground v.1.15,2013-05-21 12:28:00,
2013-05-21 08:32:00,66.1,65.5,29.97,North,32767,-999.0,0.0,98,0.00,,,0.00,Wunderground v.1.15,2013-05-21 12:32:00,
2013-05-21 08:34:00,66.1,65.5,29.97,North,32767,-999.0,0.0,98,0.00,,,0.00,Wunderground v.1.15,2013-05-21 12:34:00,
2013-05-21 08:38:00,66.2,65.6,29.97,North,32767,-999.0,0.0,98,0.00,,,0.00,Wunderground v.1.15,2013-05-21 12:38:00,
2013-05-21 08:40:00,66.3,65.7,29.97,North,32767,-999.0,0.0,98,0.00,,,0.00,Wunderground v.1.15,2013-05-21 12:40:00,
2013-05-21 08:42:00,66.3,65.7,29.97,North,32767,-999.0,0.0,98,0.00,,,0.00,Wunderground v.1.15,2013-05-21 12:42:00,
2013-05-21 08:45:00,66.4,65.8,29.97,North,32767,-999.0,0.0,98,0.00,,,0.00,Wunderground v.1.15,2013-05-21 12:45:00,
2013-05-21 08:50:00,66.7,66.1,29.97,North,32767,-999.0,0.0,98,0.00,,,0.00,Wunderground v.1.15,2013-05-21 12:50:00,
2013-05-21 08:52:00,66.7,66.1,29.97,North,32767,-999.0,0.0,98,0.00,,,0.00,Wunderground v.1.15,2013-05-21 12:52:00,
2013-05-21 08:53:00,66.8,66.2,29.97,North,32767,-999.0,0.0,98,0.00,,,0.00,Wunderground v.1.15,2013-05-21 12:53:00,
2013-05-21 08:56:00,66.8,66.2,29.97,North,32767,-999.0,0.0,98,0.00,,,0.00,Wunderground v.1.15,2013-05-21 12:56:00,
2013-05-21 08:58:00,66.9,66.3,29.97,North,32767,-999.0,0.0,98,0.00,,,0.00,Wunderground v.1.15,2013-05-21 12:58:00,
2013-05-21 09:00:00,66.9,66.3,29.97,North,32767,-999.0,0.0,98,0.00,,,0.00,Wunderground v.1.15,2013-05-21 13:00:00,
2013-05-21 09:02:00,67.0,66.4,29.97,North,32767,-999.0,0.0,98,0.00,,,0.00,Wunderground v.1.15,2013-05-21 13:02:00,
2013-05-21 09:04:00,67.0,66.4,29.96,North,32767,-999.0,0.0,98,0.00,,,0.00,Wunderground v.1.15,2013-05-21 13:04:00,
2013-05-21 09:10:00,67.0,66.4,29.96,North,32767,-999.0,0.0,98,0.00,,,0.00,Wunderground v.1.15,2013-05-21 13:10:00,
2013-05-21 09:11:00,67.0,66.4,29.96,North,32767,-999.0,0.0,98,0.00,,,0.00,Wunderground v.1.15,2013-05-21 13:11:00,
2013-05-21 09:14:00,67.0,66.4,29.97,North,32767,-999.0,0.0,98,0.00,,,0.00,Wunderground v.1.15,2013-05-21 13:14:00,
2013-05-21 09:18:00,67.1,66.5,29.96,North,32767,-999.0,0.0,98,0.00,,,0.00,Wunderground v.1.15,2013-05-21 13:18:00,
2013-05-21 09:22:00,67.2,66.6,29.96,North,32767,-999.0,0.0,98,0.00,,,0.00,Wunderground v.1.15,2013-05-21 13:22:00,
2013-05-21 09:26:00,67.2,66.6,29.97,North,32767,-999.0,0.0,98,0.00,,,0.00,Wunderground v.1.15,2013-05-21 13:26:00,
2013-05-21 09:28:00,67.2,66.6,29.97,North,32767,-999.0,0.0,98,0.00,,,0.00,Wunderground v.1.15,2013-05-21 13:28:00,
2013-05-21 09:30:00,67.2,66.6,29.97,North,32767,-999.0,0.0,98,0.00,,,0.00,Wunderground v.1.15,2013-05-21 13:30:00,
2013-05-21 09:32:00,67.2,66.6,29.97,North,32767,-999.0,0.0,98,0.00,,,0.00,Wunderground v.1.15,2013-05-21 13:32:00,
2013-05-21 09:34:00,67.2,66.6,29.97,North,32767,-999.0,0.0,98,0.00,,,0.00,Wunderground v.1.15,2013-05-21 13:34:00,
2013-05-21 09:36:00,67.2,66.6,29.97,North,32767,-999.0,0.0,98,0.00,,,0.00,Wunderground v.1.15,2013-05-21 13:36:00,
2013-05-21 09:40:00,67.4,66.8,29.97,North,32767,-999.0,0.0,98,0.00,,,0.00,Wunderground v.1.15,2013-05-21 13:40:00,
2013-05-21 09:44:00,67.6,67.0,29.97,North,32767,-999.0,0.0,98,0.00,,,0.00,Wunderground v.1.15,2013-05-21 13:44:00,
2013-05-21 09:46:00,67.7,67.1,29.97,North,32767,-999.0,0.0,98,0.00,,,0.00,Wunderground v.1.15,2013-05-21 13:46:00,
2013-05-21 09:48:00,67.7,67.1,29.97,North,32767,-999.0,0.0,98,0.00,,,0.00,Wunderground v.1.15,2013-05-21 13:48:00,
2013-05-21 09:50:00,67.9,67.3,29.96,North,32767,-999.0,0.0,98,0.00,,,0.00,Wunderground v.1.15,2013-05-21 13:50:00,
2013-05-21 09:56:00,67.8,67.2,29.96,North,32767,-999.0,0.0,98,0.00,,,0.00,Wunderground v.1.15,2013-05-21 13:56:00,
2013-05-21 10:00:00,67.9,67.0,29.96,North,32767,-999.0,0.0,97,0.00,,,0.00,Wunderground v.1.15,2013-05-21 14:00:00,
2013-05-21 10:02:00,68.0,67.1,29.96,North,32767,-999.0,0.0,97,0.00,,,0.00,Wunderground v.1.15,2013-05-21 14:02:00,
2013-05-21 10:03:00,68.1,67.2,29.96,North,32767,-999.0,0.0,97,0.00,,,0.00,Wunderground v.1.15,2013-05-21 14:03:00,
2013-05-21 10:06:00,68.2,67.3,29.96,North,32767,-999.0,0.0,97,0.00,,,0.00,Wunderground v.1.15,2013-05-21 14:06:00,
2013-05-21 10:12:00,68.7,67.8,29.96,North,32767,-999.0,0.0,97,0.00,,,0.00,Wunderground v.1.15,2013-05-21 14:12:00,
2013-05-21 10:13:00,68.9,68.0,29.96,North,32767,-999.0,0.0,97,0.00,,,0.00,Wunderground v.1.15,2013-05-21 14:13:00,
2013-05-21 10:18:00,69.1,68.2,29.96,North,32767,-999.0,0.0,97,0.00,,,0.00,Wunderground v.1.15,2013-05-21 14:18:00,
2013-05-21 10:20:00,69.2,68.3,29.96,North,32767,-999.0,0.0,97,0.00,,,0.00,Wunderground v.1.15,2013-05-21 14:20:00,
2013-05-21 10:23:00,69.1,67.9,29.96,North,32767,-999.0,0.0,96,0.00,,,0.00,Wunderground v.1.15,2013-05-21 14:23:00,
2013-05-21 10:28:00,69.5,68.3,29.96,North,32767,-999.0,0.0,96,0.00,,,0.00,Wunderground v.1.15,2013-05-21 14:28:00,
2013-05-21 10:32:00,69.8,68.3,29.96,North,32767,-999.0,0.0,95,0.00,,,0.00,Wunderground v.1.15,2013-05-21 14:32:00,
2013-05-21 10:33:00,69.9,68.4,29.96,North,32767,-999.0,0.0,95,0.00,,,0.00,Wunderground v.1.15,2013-05-21 14:33:00,
2013-05-21 10:35:00,70.1,68.6,29.96,North,32767,-999.0,0.0,95,0.00,,,0.00,Wunderground v.1.15,2013-05-21 14:35:00,
2013-05-21 10:38:00,70.0,68.2,29.96,North,32767,-999.0,0.0,94,0.00,,,0.00,Wunderground v.1.15,2013-05-21 14:38:00,
2013-05-21 10:40:00,70.1,68.3,29.96,North,32767,-999.0,0.0,94,0.00,,,0.00,Wunderground v.1.15,2013-05-21 14:40:00,
2013-05-21 10:42:00,70.1,68.3,29.95,North,32767,-999.0,0.0,94,0.00,,,0.00,Wunderground v.1.15,2013-05-21 14:42:00,
2013-05-21 10:46:00,70.5,68.7,29.95,North,32767,-999.0,0.0,94,0.00,,,0.00,Wunderground v.1.15,2013-05-21 14:46:00,
2013-05-21 10:50:00,70.8,69.0,29.95,North,32767,-999.0,0.0,94,0.00,,,0.00,Wunderground v.1.15,2013-05-21 14:50:00,
2013-05-21 10:52:00,70.9,68.8,29.95,North,32767,-999.0,0.0,93,0.00,,,0.00,Wunderground v.1.15,2013-05-21 14:52:00,
2013-05-21 10:54:00,71.2,69.1,29.95,North,32767,-999.0,0.0,93,0.00,,,0.00,Wunderground v.1.15,2013-05-21 14:54:00,
2013-05-21 10:56:00,71.5,69.4,29.95,North,32767,-999.0,0.0,93,0.00,,,0.00,Wunderground v.1.15,2013-05-21 14:56:00,
2013-05-21 11:02:00,72.2,69.7,29.94,North,32767,-999.0,0.0,92,0.00,,,0.00,Wunderground v.1.15,2013-05-21 15:02:00,
2013-05-21 11:04:00,72.2,69.1,29.94,North,32767,-999.0,0.0,90,0.00,,,0.00,Wunderground v.1.15,2013-05-21 15:04:00,
2013-05-21 11:06:00,72.1,69.0,29.94,North,32767,-999.0,0.0,90,0.00,,,0.00,Wunderground v.1.15,2013-05-21 15:06:00,
2013-05-21 11:08:00,72.0,68.9,29.94,North,32767,-999.0,0.0,90,0.00,,,0.00,Wunderground v.1.15,2013-05-21 15:08:00,
2013-05-21 11:10:00,71.9,68.8,29.94,North,32767,-999.0,0.0,90,0.00,,,0.00,Wunderground v.1.15,2013-05-21 15:10:00,
2013-05-21 11:14:00,71.9,69.1,29.94,North,32767,-999.0,0.0,91,0.00,,,0.00,Wunderground v.1.15,2013-05-21 15:14:00,
2013-05-21 11:16:00,72.1,69.3,29.94,North,32767,-999.0,0.0,91,0.00,,,0.00,Wunderground v.1.15,2013-05-21 15:16:00,
2013-05-21 11:20:00,72.5,69.7,29.94,North,32767,-999.0,0.0,91,0.00,,,0.00,Wunderground v.1.15,2013-05-21 15:20:00,
2013-05-21 11:22:00,72.7,69.9,29.94,North,32767,-999.0,0.0,91,0.00,,,0.00,Wunderground v.1.15,2013-05-21 15:22:00,
2013-05-21 11:26:00,73.0,70.2,29.94,North,32767,-999.0,0.0,91,0.00,,,0.00,Wunderground v.1.15,2013-05-21 15:26:00,
2013-05-21 11:28:00,73.5,70.7,29.94,North,32767,-999.0,0.0,91,0.00,,,0.00,Wunderground v.1.15,2013-05-21 15:28:00,
2013-05-21 11:30:00,73.9,70.8,29.94,North,32767,-999.0,0.0,90,0.00,,,0.00,Wunderground v.1.15,2013-05-21 15:30:00,
2013-05-21 11:32:00,74.6,71.1,29.94,North,32767,-999.0,0.0,89,0.00,,,0.00,Wunderground v.1.15,2013-05-21 15:32:00,
2013-05-21 11:34:00,75.1,71.6,29.94,North,32767,-999.0,0.0,89,0.00,,,0.00,Wunderground v.1.15,2013-05-21 15:34:00,
2013-05-21 11:36:00,74.8,70.3,29.94,North,32767,-999.0,0.0,86,0.00,,,0.00,Wunderground v.1.15,2013-05-21 15:36:00,
2013-05-21 11:40:00,74.9,70.8,29.94,North,32767,-999.0,0.0,87,0.00,,,0.00,Wunderground v.1.15,2013-05-21 15:40:00,
2013-05-21 11:43:00,75.5,71.7,29.94,North,32767,-999.0,0.0,88,0.00,,,0.00,Wunderground v.1.15,2013-05-21 15:43:00,
2013-05-21 11:46:00,75.8,72.3,29.94,North,32767,-999.0,0.0,89,0.00,,,0.00,Wunderground v.1.15,2013-05-21 15:46:00,
2013-05-21 11:52:00,76.7,71.8,29.93,North,32767,-999.0,0.0,85,0.00,,,0.00,Wunderground v.1.15,2013-05-21 15:52:00,
2013-05-21 11:54:00,77.2,72.7,29.93,North,32767,-999.0,0.0,86,0.00,,,0.00,Wunderground v.1.15,2013-05-21 15:54:00,
2013-05-21 11:56:00,77.6,72.7,29.93,North,32767,-999.0,0.0,85,0.00,,,0.00,Wunderground v.1.15,2013-05-21 15:56:00,
2013-05-21 11:58:00,77.5,71.9,29.93,North,32767,-999.0,0.0,83,0.00,,,0.00,Wunderground v.1.15,2013-05-21 15:58:00,
2013-05-21 12:02:00,77.1,71.2,29.93,North,32767,-999.0,0.0,82,0.00,,,0.00,Wunderground v.1.15,2013-05-21 16:02:00,
2013-05-21 12:04:00,77.1,71.5,29.93,North,32767,-999.0,0.0,83,0.00,,,0.00,Wunderground v.1.15,2013-05-21 16:04:00,
2013-05-21 12:08:00,77.1,71.5,29.93,North,32767,-999.0,0.0,83,0.00,,,0.00,Wunderground v.1.15,2013-05-21 16:08:00,
2013-05-21 12:10:00,77.3,72.1,29.93,North,32767,-999.0,0.0,84,0.00,,,0.00,Wunderground v.1.15,2013-05-21 16:10:00,
2013-05-21 12:12:00,77.4,71.8,29.93,North,32767,-999.0,0.0,83,0.00,,,0.00,Wunderground v.1.15,2013-05-21 16:12:00,
2013-05-21 12:14:00,77.6,72.0,29.93,North,32767,-999.0,0.0,83,0.00,,,0.00,Wunderground v.1.15,2013-05-21 16:14:00,
2013-05-21 12:16:00,77.8,71.9,29.93,North,32767,-999.0,0.0,82,0.00,,,0.00,Wunderground v.1.15,2013-05-21 16:16:00,
2013-05-21 12:20:00,78.7,73.1,29.92,North,32767,-999.0,0.0,83,0.00,,,0.00,Wunderground v.1.15,2013-05-21 16:20:00,
2013-05-21 12:22:00,78.7,72.7,29.92,South,171,0.0,0.0,82,0.00,,,0.00,Wunderground v.1.15,2013-05-21 16:22:00,
2013-05-21 12:24:00,78.8,72.8,29.92,South,173,0.0,0.0,82,0.00,,,0.00,Wunderground v.1.15,2013-05-21 16:24:00,
2013-05-21 12:28:00,79.2,72.1,29.92,SSE,161,0.0,0.0,79,0.00,,,0.00,Wunderground v.1.15,2013-05-21 16:28:00,
2013-05-21 12:30:00,79.2,72.9,29.92,SSE,161,0.0,0.0,81,0.00,,,0.00,Wunderground v.1.15,2013-05-21 16:30:00,
2013-05-21 12:32:00,79.4,72.7,29.92,South,181,0.0,0.0,80,0.00,,,0.00,Wunderground v.1.15,2013-05-21 16:32:00,
2013-05-21 12:36:00,79.9,73.2,29.92,South,177,0.0,0.0,80,0.00,,,0.00,Wunderground v.1.15,2013-05-21 16:36:00,
2013-05-21 12:38:00,80.0,72.5,29.92,SSE,168,0.0,0.0,78,0.00,,,0.00,Wunderground v.1.15,2013-05-21 16:38:00,
2013-05-21 12:40:00,79.9,72.8,29.92,South,172,0.0,0.0,79,0.00,,,0.00,Wunderground v.1.15,2013-05-21 16:40:00,
2013-05-21 12:43:00,79.7,73.0,29.92,SSE,150,0.0,0.0,80,0.00,,,0.00,Wunderground v.1.15,2013-05-21 16:43:00,
2013-05-21 12:46:00,79.5,72.4,29.92,SSE,161,0.0,0.0,79,0.00,,,0.00,Wunderground v.1.15,2013-05-21 16:46:00,
2013-05-21 12:52:00,80.6,73.1,29.92,South,175,0.0,0.0,78,0.00,,,0.00,Wunderground v.1.15,2013-05-21 16:52:00,
2013-05-21 12:54:00,80.6,72.7,29.92,SE,128,0.0,0.0,77,0.00,,,0.00,Wunderground v.1.15,2013-05-21 16:54:00,
2013-05-21 12:58:00,80.6,72.7,29.91,South,181,1.0,1.0,77,0.00,,,0.00,Wunderground v.1.15,2013-05-21 16:58:00,
2013-05-21 13:00:00,80.7,73.2,29.91,SSW,212,1.0,1.0,78,0.00,,,0.00,Wunderground v.1.15,2013-05-21 17:00:00,
2013-05-21 13:02:00,80.9,73.0,29.91,South,175,1.0,1.0,77,0.00,,,0.00,Wunderground v.1.15,2013-05-21 17:02:00,
2013-05-21 13:06:00,81.2,72.9,29.91,SW,223,1.0,1.0,76,0.00,,,0.00,Wunderground v.1.15,2013-05-21 17:06:00,
2013-05-21 13:08:00,81.4,73.5,29.91,SW,221,0.0,1.0,77,0.00,,,0.00,Wunderground v.1.15,2013-05-21 17:08:00,
2013-05-21 13:12:00,81.7,73.4,29.91,SSE,150,0.0,1.0,76,0.00,,,0.00,Wunderground v.1.15,2013-05-21 17:12:00,
2013-05-21 13:14:00,81.8,73.1,29.91,SSE,164,0.0,1.0,75,0.00,,,0.00,Wunderground v.1.15,2013-05-21 17:14:00,
2013-05-21 13:15:00,81.8,73.5,29.91,SW,235,1.0,1.0,76,0.00,,,0.00,Wunderground v.1.15,2013-05-21 17:15:00,
2013-05-21 13:18:00,81.7,72.6,29.91,South,170,1.0,1.0,74,0.00,,,0.00,Wunderground v.1.15,2013-05-21 17:18:00,
2013-05-21 13:20:00,82.0,73.7,29.91,South,177,1.0,1.0,76,0.00,,,0.00,Wunderground v.1.15,2013-05-21 17:20:00,
2013-05-21 13:24:00,82.1,73.8,29.91,SSE,150,0.0,1.0,76,0.00,,,0.00,Wunderground v.1.15,2013-05-21 17:24:00,
2013-05-21 13:26:00,82.3,74.0,29.91,SE,126,0.0,1.0,76,0.00,,,0.00,Wunderground v.1.15,2013-05-21 17:26:00,
2013-05-21 13:30:00,82.7,74.4,29.90,SW,217,1.0,2.0,76,0.00,,,0.00,Wunderground v.1.15,2013-05-21 17:30:00,
2013-05-21 13:32:00,82.9,73.4,29.90,SSE,159,1.0,2.0,73,0.00,,,0.00,Wunderground v.1.15,2013-05-21 17:32:00,
2013-05-21 13:36:00,82.9,73.4,29.90,SSE,165,2.0,2.0,73,0.00,,,0.00,Wunderground v.1.15,2013-05-21 17:36:00,
2013-05-21 13:38:00,82.9,72.5,29.90,South,176,1.0,2.0,71,0.00,,,0.00,Wunderground v.1.15,2013-05-21 17:38:00,
2013-05-21 13:40:00,83.1,73.1,29.90,SSW,194,1.0,1.0,72,0.00,,,0.00,Wunderground v.1.15,2013-05-21 17:40:00,
2013-05-21 13:46:00,83.4,72.6,29.90,SSE,150,1.0,4.0,70,0.00,,,0.00,Wunderground v.1.15,2013-05-21 17:46:00,
2013-05-21 13:48:00,83.4,73.4,29.90,SE,145,1.0,4.0,72,0.00,,,0.00,Wunderground v.1.15,2013-05-21 17:48:00,
2013-05-21 13:50:00,83.6,73.6,29.90,SSE,163,1.0,4.0,72,0.00,,,0.00,Wunderground v.1.15,2013-05-21 17:50:00,
2013-05-21 13:52:00,83.6,73.2,29.90,South,188,1.0,4.0,71,0.00,,,0.00,Wunderground v.1.15,2013-05-21 17:52:00,
2013-05-21 13:56:00,83.6,74.0,29.90,South,182,1.0,4.0,73,0.00,,,0.00,Wunderground v.1.15,2013-05-21 17:56:00,
2013-05-21 14:02:00,83.8,73.8,29.89,SSE,160,1.0,3.0,72,0.00,,,0.00,Wunderground v.1.15,2013-05-21 18:02:00,
2013-05-21 14:08:00,83.8,73.4,29.89,SE,146,2.0,3.0,71,0.00,,,0.00,Wunderground v.1.15,2013-05-21 18:08:00,
2013-05-21 14:10:00,83.8,72.5,29.89,South,183,2.0,2.0,69,0.00,,,0.00,Wunderground v.1.15,2013-05-21 18:10:00,
2013-05-21 14:12:00,83.9,73.5,29.89,SW,215,1.0,2.0,71,0.00,,,0.00,Wunderground v.1.15,2013-05-21 18:12:00,
2013-05-21 14:16:00,84.0,74.4,29.89,SW,219,1.0,3.0,73,0.00,,,0.00,Wunderground v.1.15,2013-05-21 18:16:00,
2013-05-21 14:18:00,84.0,72.7,29.88,SSE,163,1.0,3.0,69,0.00,,,0.00,Wunderground v.1.15,2013-05-21 18:18:00,
2013-05-21 14:20:00,83.8,73.0,29.88,SSE,163,1.0,1.0,70,0.00,,,0.00,Wunderground v.1.15,2013-05-21 18:20:00,
2013-05-21 14:22:00,83.8,73.0,29.88,SW,222,1.0,1.0,70,0.00,,,0.00,Wunderground v.1.15,2013-05-21 18:22:00,
2013-05-21 14:24:00,84.1,73.7,29.88,SW,222,1.0,2.0,71,0.00,,,0.00,Wunderground v.1.15,2013-05-21 18:24:00,
2013-05-21 14:26:00,84.3,73.4,29.88,SW,222,0.0,2.0,70,0.00,,,0.00,Wunderground v.1.15,2013-05-21 18:26:00,
2013-05-21 14:28:00,84.5,73.6,29.88,SSE,163,0.0,2.0,70,0.00,,,0.00,Wunderground v.1.15,2013-05-21 18:28:00,
2013-05-21 14:30:00,84.5,73.2,29.88,SSE,165,1.0,1.0,69,0.00,,,0.00,Wunderground v.1.15,2013-05-21 18:30:00,
2013-05-21 14:34:00,84.6,72.9,29.88,South,174,1.0,4.0,68,0.00,,,0.00,Wunderground v.1.15,2013-05-21 18:34:00,
2013-05-21 14:38:00,84.5,73.6,29.88,SSE,166,2.0,4.0,70,0.00,,,0.00,Wunderground v.1.15,2013-05-21 18:38:00,
2013-05-21 14:40:00,84.5,72.8,29.88,SSE,151,2.0,2.0,68,0.00,,,0.00,Wunderground v.1.15,2013-05-21 18:40:00,
2013-05-21 14:42:00,84.7,73.8,29.88,SW,219,2.0,2.0,70,0.00,,,0.00,Wunderground v.1.15,2013-05-21 18:42:00,
2013-05-21 14:45:00,84.8,72.2,29.88,SW,222,3.0,3.0,66,0.00,,,0.00,Wunderground v.1.15,2013-05-21 18:45:00,
2013-05-21 14:50:00,85.0,73.3,29.88,WSW,245,2.0,2.0,68,0.00,,,0.00,Wunderground v.1.15,2013-05-21 18:50:00,
2013-05-21 14:54:00,84.7,72.5,29.88,South,171,1.0,2.0,67,0.00,,,0.00,Wunderground v.1.15,2013-05-21 18:54:00,
2013-05-21 14:58:00,85.1,72.5,29.88,SSW,209,2.0,2.0,66,0.00,,,0.00,Wunderground v.1.15,2013-05-21 18:58:00,
2013-05-21 15:00:00,85.0,71.5,29.88,SSW,200,2.0,2.0,64,0.00,,,0.00,Wunderground v.1.15,2013-05-21 19:00:00,
2013-05-21 15:02:00,85.0,72.4,29.88,SSW,209,1.0,2.0,66,0.00,,,0.00,Wunderground v.1.15,2013-05-21 19:02:00,
2013-05-21 15:08:00,85.3,73.1,29.87,SSE,157,1.0,2.0,67,0.00,,,0.00,Wunderground v.1.15,2013-05-21 19:08:00,
2013-05-21 15:12:00,85.4,72.7,29.87,South,173,1.0,1.0,66,0.00,,,0.00,Wunderground v.1.15,2013-05-21 19:12:00,
2013-05-21 15:14:00,85.6,73.4,29.87,SSE,160,1.0,1.0,67,0.00,,,0.00,Wunderground v.1.15,2013-05-21 19:14:00,
2013-05-21 15:20:00,85.6,72.9,29.87,SSE,157,1.0,4.0,66,0.00,,,0.00,Wunderground v.1.15,2013-05-21 19:20:00,
2013-05-21 15:22:00,85.7,73.0,29.87,SSE,165,1.0,4.0,66,0.00,,,0.00,Wunderground v.1.15,2013-05-21 19:22:00,
2013-05-21 15:24:00,85.5,71.9,29.87,South,183,1.0,4.0,64,0.00,,,0.00,Wunderground v.1.15,2013-05-21 19:24:00,
2013-05-21 15:28:00,85.5,72.8,29.87,South,169,1.0,5.0,66,0.00,,,0.00,Wunderground v.1.15,2013-05-21 19:28:00,
2013-05-21 15:30:00,85.5,72.4,29.87,South,179,2.0,3.0,65,0.00,,,0.00,Wunderground v.1.15,2013-05-21 19:30:00,
2013-05-21 15:40:00,84.4,72.2,29.86,SSE,157,2.0,2.0,67,0.00,,,0.00,Wunderground v.1.15,2013-05-21 19:40:00,
2013-05-21 15:50:00,85.0,71.9,29.86,SSW,195,1.0,6.0,65,0.00,,,0.00,Wunderground v.1.15,2013-05-21 19:50:00,
2013-05-21 15:54:00,84.9,71.8,29.86,South,177,2.0,6.0,65,0.00,,,0.00,Wunderground v.1.15,2013-05-21 19:54:00,
2013-05-21 15:56:00,84.8,71.7,29.85,SSE,165,3.0,6.0,65,0.00,,,0.00,Wunderground v.1.15,2013-05-21 19:56:00,
2013-05-21 15:58:00,84.5,71.4,29.85,SE,138,2.0,6.0,65,0.00,,,0.00,Wunderground v.1.15,2013-05-21 19:58:00,
2013-05-21 16:00:00,84.5,71.9,29.85,SSE,159,3.0,4.0,66,0.00,,,0.00,Wunderground v.1.15,2013-05-21 20:00:00,
2013-05-21 16:01:00,84.4,71.8,29.85,SW,216,3.0,4.0,66,0.00,,,0.00,Wunderground v.1.15,2013-05-21 20:01:00,
2013-05-21 16:04:00,84.3,71.7,29.85,SW,217,3.0,4.0,66,0.00,,,0.00,Wunderground v.1.15,2013-05-21 20:04:00,
2013-05-21 16:06:00,84.2,71.6,29.85,SE,138,3.0,4.0,66,0.00,,,0.00,Wunderground v.1.15,2013-05-21 20:06:00,
2013-05-21 16:08:00,84.2,72.5,29.84,SSW,209,3.0,4.0,68,0.00,,,0.00,Wunderground v.1.15,2013-05-21 20:08:00,
2013-05-21 16:14:00,84.5,71.0,29.85,SSW,209,2.0,6.0,64,0.00,,,0.00,Wunderground v.1.15,2013-05-21 20:14:00,
2013-05-21 16:20:00,84.6,72.0,29.84,South,174,2.0,2.0,66,0.00,,,0.00,Wunderground v.1.15,2013-05-21 20:20:00,
2013-05-21 16:22:00,84.7,72.1,29.84,SSW,211,1.0,2.0,66,0.00,,,0.00,Wunderground v.1.15,2013-05-21 20:22:00,
2013-05-21 16:24:00,84.7,71.2,29.84,SW,225,1.0,2.0,64,0.00,,,0.00,Wunderground v.1.15,2013-05-21 20:24:00,
2013-05-21 16:28:00,84.9,70.9,29.84,South,190,1.0,2.0,63,0.00,,,0.00,Wunderground v.1.15,2013-05-21 20:28:00,
2013-05-21 16:30:00,85.0,71.9,29.84,SW,217,1.0,3.0,65,0.00,,,0.00,Wunderground v.1.15,2013-05-21 20:30:00,
2013-05-21 16:34:00,85.0,71.5,29.84,SSE,165,1.0,3.0,64,0.00,,,0.00,Wunderground v.1.15,2013-05-21 20:34:00,
2013-05-21 16:40:00,84.6,71.5,29.85,SSE,150,1.0,10.0,65,0.00,,,0.00,Wunderground v.1.15,2013-05-21 20:40:00,
2013-05-21 16:42:00,84.7,72.1,29.85,SE,146,1.0,10.0,66,0.00,,,0.00,Wunderground v.1.15,2013-05-21 20:42:00,
2013-05-21 16:46:00,84.3,71.7,29.85,SSE,167,1.0,10.0,66,0.00,,,0.00,Wunderground v.1.15,2013-05-21 20:46:00,
2013-05-21 16:48:00,84.3,71.2,29.85,South,186,1.0,10.0,65,0.00,,,0.00,Wunderground v.1.15,2013-05-21 20:48:00,
2013-05-21 16:52:00,84.3,71.7,29.84,SSE,161,1.0,2.0,66,0.00,,,0.00,Wunderground v.1.15,2013-05-21 20:52:00,
2013-05-21 16:54:00,84.0,71.4,29.84,SSE,149,1.0,2.0,66,0.00,,,0.00,Wunderground v.1.15,2013-05-21 20:54:00,
2013-05-21 16:59:00,83.6,71.5,29.84,South,186,1.0,2.0,67,0.00,,,0.00,Wunderground v.1.15,2013-05-21 20:59:00,
2013-05-21 17:00:00,83.7,72.0,29.84,South,183,1.0,1.0,68,0.00,,,0.00,Wunderground v.1.15,2013-05-21 21:00:00,
2013-05-21 17:04:00,83.8,72.5,29.84,SE,137,1.0,1.0,69,0.00,,,0.00,Wunderground v.1.15,2013-05-21 21:04:00,
2013-05-21 17:06:00,83.8,71.7,29.84,SSE,160,1.0,3.0,67,0.00,,,0.00,Wunderground v.1.15,2013-05-21 21:06:00,
2013-05-21 17:10:00,83.8,72.1,29.84,ESE,119,2.0,2.0,68,0.00,,,0.00,Wunderground v.1.15,2013-05-21 21:10:00,
2013-05-21 17:12:00,83.8,72.1,29.84,South,175,1.0,2.0,68,0.00,,,0.00,Wunderground v.1.15,2013-05-21 21:12:00,
2013-05-21 17:16:00,83.6,72.3,29.84,SSE,163,1.0,2.0,69,0.00,,,0.00,Wunderground v.1.15,2013-05-21 21:16:00,
2013-05-21 17:18:00,83.6,72.8,29.84,SSE,156,1.0,3.0,70,0.00,,,0.00,Wunderground v.1.15,2013-05-21 21:18:00,
2013-05-21 17:20:00,83.5,72.3,29.84,SSW,209,0.0,0.0,69,0.00,,,0.00,Wunderground v.1.15,2013-05-21 21:20:00,
2013-05-21 17:21:00,83.4,73.0,29.85,SE,128,0.0,0.0,71,0.00,,,0.00,Wunderground v.1.15,2013-05-21 21:21:00,
2013-05-21 17:24:00,83.2,72.8,29.85,South,175,0.0,0.0,71,0.00,,,0.00,Wunderground v.1.15,2013-05-21 21:24:00,
2013-05-21 17:26:00,83.1,72.3,29.85,South,188,1.0,1.0,70,0.00,,,0.00,Wunderground v.1.15,2013-05-21 21:26:00,
2013-05-21 17:30:00,83.0,72.2,29.84,SE,128,1.0,3.0,70,0.00,,,0.00,Wunderground v.1.15,2013-05-21 21:30:00,
2013-05-21 17:34:00,82.9,72.1,29.84,SSW,210,2.0,3.0,70,0.00,,,0.00,Wunderground v.1.15,2013-05-21 21:34:00,
2013-05-21 17:36:00,82.8,72.4,29.84,South,169,2.0,3.0,71,0.00,,,0.00,Wunderground v.1.15,2013-05-21 21:36:00,
2013-05-21 17:40:00,82.7,72.3,29.85,South,189,1.0,1.0,71,0.00,,,0.00,Wunderground v.1.15,2013-05-21 21:40:00,
2013-05-21 17:42:00,82.6,72.2,29.85,SSE,150,2.0,3.0,71,0.00,,,0.00,Wunderground v.1.15,2013-05-21 21:42:00,
2013-05-21 17:44:00,82.6,72.2,29.85,SSE,162,1.0,3.0,71,0.00,,,0.00,Wunderground v.1.15,2013-05-21 21:44:00,
2013-05-21 17:46:00,82.6,72.2,29.85,SSE,161,1.0,3.0,71,0.00,,,0.00,Wunderground v.1.15,2013-05-21 21:46:00,
2013-05-21 17:48:00,82.6,72.2,29.84,South,177,1.0,3.0,71,0.00,,,0.00,Wunderground v.1.15,2013-05-21 21:48:00,
2013-05-21 17:52:00,82.2,71.9,29.84,SW,225,1.0,4.0,71,0.00,,,0.00,Wunderground v.1.15,2013-05-21 21:52:00,
2013-05-21 17:54:00,82.1,72.6,29.84,SE,143,1.0,4.0,73,0.00,,,0.00,Wunderground v.1.15,2013-05-21 21:54:00,
2013-05-21 17:56:00,82.0,72.1,29.84,South,172,1.0,4.0,72,0.00,,,0.00,Wunderground v.1.15,2013-05-21 21:56:00,
2013-05-21 17:58:00,82.0,72.9,29.84,South,173,1.0,4.0,74,0.00,,,0.00,Wunderground v.1.15,2013-05-21 21:58:00,
2013-05-21 18:02:00,81.8,72.3,29.84,SSW,208,0.0,1.0,73,0.00,,,0.00,Wunderground v.1.15,2013-05-21 22:02:00,
2013-05-21 18:03:00,81.8,71.9,29.84,SW,219,0.0,1.0,72,0.00,,,0.00,Wunderground v.1.15,2013-05-21 22:03:00,
2013-05-21 18:06:00,81.8,72.3,29.84,South,188,0.0,1.0,73,0.00,,,0.00,Wunderground v.1.15,2013-05-21 22:06:00,
2013-05-21 18:12:00,81.6,72.5,29.84,SSE,163,1.0,1.0,74,0.00,,,0.00,Wunderground v.1.15,2013-05-21 22:12:00,
2013-05-21 18:14:00,81.6,72.5,29.84,South,188,0.0,3.0,74,0.00,,,0.00,Wunderground v.1.15,2013-05-21 22:14:00,
2013-05-21 18:18:00,81.5,72.4,29.84,SSE,165,1.0,3.0,74,0.00,,,0.00,Wunderground v.1.15,2013-05-21 22:18:00,
2013-05-21 18:22:00,81.4,72.3,29.84,SSE,165,0.0,1.0,74,0.00,,,0.00,Wunderground v.1.15,2013-05-21 22:22:00,
2013-05-21 18:23:00,81.4,72.3,29.84,SSE,161,1.0,5.0,74,0.00,,,0.00,Wunderground v.1.15,2013-05-21 22:23:00,
2013-05-21 18:28:00,81.2,72.5,29.84,SSE,165,1.0,5.0,75,0.00,,,0.00,Wunderground v.1.15,2013-05-21 22:28:00,
2013-05-21 18:32:00,81.1,72.4,29.84,South,183,1.0,1.0,75,0.00,,,0.00,Wunderground v.1.15,2013-05-21 22:32:00,
2013-05-21 18:33:00,81.0,71.9,29.84,SSE,162,1.0,1.0,74,0.00,,,0.00,Wunderground v.1.15,2013-05-21 22:33:00,
2013-05-21 18:35:00,80.8,72.1,29.84,SSE,159,1.0,1.0,75,0.00,,,0.00,Wunderground v.1.15,2013-05-21 22:35:00,
2013-05-21 18:40:00,80.5,71.8,29.84,South,186,1.0,1.0,75,0.00,,,0.00,Wunderground v.1.15,2013-05-21 22:40:00,
2013-05-21 18:42:00,80.4,71.7,29.84,South,171,1.0,1.0,75,0.00,,,0.00,Wunderground v.1.15,2013-05-21 22:42:00,
2013-05-21 18:48:00,80.0,71.4,29.84,SSE,159,2.0,2.0,75,0.00,,,0.00,Wunderground v.1.15,2013-05-21 22:48:00,
2013-05-21 18:50:00,80.0,71.4,29.83,SSE,161,2.0,5.0,75,0.00,,,0.00,Wunderground v.1.15,2013-05-21 22:50:00,
2013-05-21 18:52:00,80.0,71.8,29.83,SSW,200,2.0,5.0,76,0.00,,,0.00,Wunderground v.1.15,2013-05-21 22:52:00,
2013-05-21 18:55:00,79.8,71.6,29.83,SSE,159,2.0,5.0,76,0.00,,,0.00,Wunderground v.1.15,2013-05-21 22:55:00,
2013-05-21 18:58:00,79.8,71.6,29.83,SSE,163,1.0,5.0,76,0.00,,,0.00,Wunderground v.1.15,2013-05-21 22:58:00,
2013-05-21 19:02:00,79.7,71.5,29.84,South,176,0.0,1.0,76,0.00,,,0.00,Wunderground v.1.15,2013-05-21 23:02:00,
2013-05-21 19:04:00,79.6,71.8,29.84,South,189,0.0,1.0,77,0.00,,,0.00,Wunderground v.1.15,2013-05-21 23:04:00,
2013-05-21 19:06:00,79.5,71.3,29.84,South,186,0.0,1.0,76,0.00,,,0.00,Wunderground v.1.15,2013-05-21 23:06:00,
2013-05-21 19:08:00,79.5,71.3,29.84,South,184,0.0,1.0,76,0.00,,,0.00,Wunderground v.1.15,2013-05-21 23:08:00,
2013-05-21 19:10:00,79.4,71.2,29.84,SSE,155,0.0,0.0,76,0.00,,,0.00,Wunderground v.1.15,2013-05-21 23:10:00,
2013-05-21 19:14:00,79.2,71.4,29.85,SSW,202,0.0,0.0,77,0.00,,,0.00,Wunderground v.1.15,2013-05-21 23:14:00,
2013-05-21 19:16:00,79.1,71.3,29.85,South,184,0.0,0.0,77,0.00,,,0.00,Wunderground v.1.15,2013-05-21 23:16:00,
2013-05-21 19:20:00,78.9,71.1,29.85,SSE,165,0.0,0.0,77,0.00,,,0.00,Wunderground v.1.15,2013-05-21 23:20:00,
2013-05-21 19:24:00,78.7,71.3,29.85,South,178,0.0,0.0,78,0.00,,,0.00,Wunderground v.1.15,2013-05-21 23:24:00,
2013-05-21 19:26:00,78.7,71.3,29.85,SSE,153,0.0,0.0,78,0.00,,,0.00,Wunderground v.1.15,2013-05-21 23:26:00,
2013-05-21 19:28:00,78.7,71.3,29.85,South,171,0.0,0.0,78,0.00,,,0.00,Wunderground v.1.15,2013-05-21 23:28:00,
2013-05-21 19:34:00,78.4,71.0,29.85,SSE,162,0.0,4.0,78,0.00,,,0.00,Wunderground v.1.15,2013-05-21 23:34:00,
2013-05-21 19:36:00,78.4,71.0,29.85,South,178,0.0,4.0,78,0.00,,,0.00,Wunderground v.1.15,2013-05-21 23:36:00,
2013-05-21 19:38:00,78.3,70.9,29.85,South,174,0.0,4.0,78,0.00,,,0.00,Wunderground v.1.15,2013-05-21 23:38:00,
2013-05-21 19:39:00,78.2,71.2,29.85,South,174,0.0,0.0,79,0.00,,,0.00,Wunderground v.1.15,2013-05-21 23:39:00,
2013-05-21 19:46:00,77.9,70.9,29.85,SE,146,1.0,1.0,79,0.00,,,0.00,Wunderground v.1.15,2013-05-21 23:46:00,
2013-05-21 19:49:00,77.7,70.7,29.85,SSE,156,1.0,1.0,79,0.00,,,0.00,Wunderground v.1.15,2013-05-21 23:49:00,
2013-05-21 19:52:00,77.6,70.6,29.85,South,169,1.0,3.0,79,0.00,,,0.00,Wunderground v.1.15,2013-05-21 23:52:00,
2013-05-21 19:54:00,77.5,70.5,29.85,South,169,1.0,3.0,79,0.00,,,0.00,Wunderground v.1.15,2013-05-21 23:54:00,
2013-05-21 19:56:00,77.5,70.5,29.85,South,185,1.0,3.0,79,0.00,,,0.00,Wunderground v.1.15,2013-05-21 23:56:00,
2013-05-21 19:59:00,77.3,70.3,29.84,South,174,1.0,1.0,79,0.00,,,0.00,Wunderground v.1.15,2013-05-21 23:59:00,
2013-05-21 20:02:00,77.3,70.3,29.84,South,180,0.0,1.0,79,0.00,,,0.00,Wunderground v.1.15,2013-05-22 00:02:00,
2013-05-21 20:04:00,77.2,70.2,29.85,SSE,165,0.0,1.0,79,0.00,,,0.00,Wunderground v.1.15,2013-05-22 00:04:00,
2013-05-21 20:06:00,77.0,70.4,29.84,South,170,0.0,1.0,80,0.00,,,0.00,Wunderground v.1.15,2013-05-22 00:06:00,
2013-05-21 20:08:00,76.9,70.3,29.84,South,181,0.0,1.0,80,0.00,,,0.00,Wunderground v.1.15,2013-05-22 00:08:00,
2013-05-21 20:14:00,76.7,70.1,29.84,SSE,165,0.0,0.0,80,0.00,,,0.00,Wunderground v.1.15,2013-05-22 00:14:00,
2013-05-21 20:18:00,76.5,69.9,29.84,South,180,0.0,0.0,80,0.00,,,0.00,Wunderground v.1.15,2013-05-22 00:18:00,
2013-05-21 20:24:00,76.3,70.0,29.84,South,186,0.0,2.0,81,0.00,,,0.00,Wunderground v.1.15,2013-05-22 00:24:00,
2013-05-21 20:26:00,76.2,69.9,29.84,South,172,0.0,2.0,81,0.00,,,0.00,Wunderground v.1.15,2013-05-22 00:26:00,
2013-05-21 20:28:00,76.1,69.8,29.84,South,184,0.0,2.0,81,0.00,,,0.00,Wunderground v.1.15,2013-05-22 00:28:00,
2013-05-21 20:30:00,75.9,69.6,29.85,South,185,0.0,0.0,81,0.00,,,0.00,Wunderground v.1.15,2013-05-22 00:30:00,
2013-05-21 20:32:00,75.8,69.6,29.85,South,184,0.0,0.0,81,0.00,,,0.00,Wunderground v.1.15,2013-05-22 00:32:00,
2013-05-21 20:34:00,75.7,69.8,29.85,South,188,0.0,0.0,82,0.00,,,0.00,Wunderground v.1.15,2013-05-22 00:34:00,
2013-05-21 20:38:00,75.4,69.5,29.85,South,185,0.0,0.0,82,0.00,,,0.00,Wunderground v.1.15,2013-05-22 00:38:00,
2013-05-21 20:40:00,75.3,69.4,29.85,South,185,0.0,0.0,82,0.00,,,0.00,Wunderground v.1.15,2013-05-22 00:40:00,
2013-05-21 20:46:00,75.0,69.1,29.85,SSE,161,0.0,0.0,82,0.00,,,0.00,Wunderground v.1.15,2013-05-22 00:46:00,
2013-05-21 20:49:00,74.9,69.0,29.86,SSE,162,0.0,0.0,82,0.00,,,0.00,Wunderground v.1.15,2013-05-22 00:49:00,
2013-05-21 20:54:00,74.8,68.9,29.85,SSE,163,0.0,0.0,82,0.00,,,0.00,Wunderground v.1.15,2013-05-22 00:54:00,
2013-05-21 20:56:00,74.8,69.3,29.85,South,179,0.0,0.0,83,0.00,,,0.00,Wunderground v.1.15,2013-05-22 00:56:00,
2013-05-21 20:58:00,74.7,69.2,29.85,SSE,166,0.0,2.0,83,0.00,,,0.00,Wunderground v.1.15,2013-05-22 00:58:00,
2013-05-21 21:02:00,74.7,69.2,29.85,South,175,0.0,2.0,83,0.00,,,0.00,Wunderground v.1.15,2013-05-22 01:02:00,
2013-05-21 21:03:00,74.6,69.1,29.85,South,172,0.0,2.0,83,0.00,,,0.00,Wunderground v.1.15,2013-05-22 01:03:00,
2013-05-21 21:10:00,74.4,68.9,29.85,SSE,164,0.0,0.0,83,0.00,,,0.00,Wunderground v.1.15,2013-05-22 01:10:00,
2013-05-21 21:12:00,74.4,68.9,29.85,SW,215,0.0,0.0,83,0.00,,,0.00,Wunderground v.1.15,2013-05-22 01:12:00,
2013-05-21 21:14:00,74.3,68.8,29.85,SSE,168,0.0,0.0,83,0.00,,,0.00,Wunderground v.1.15,2013-05-22 01:14:00,
2013-05-21 21:16:00,74.2,68.7,29.85,SSE,168,0.0,0.0,83,0.00,,,0.00,Wunderground v.1.15,2013-05-22 01:16:00,
2013-05-21 21:20:00,74.2,68.7,29.86,South,169,0.0,0.0,83,0.00,,,0.00,Wunderground v.1.15,2013-05-22 01:20:00,
2013-05-21 21:22:00,74.1,68.6,29.85,SSW,194,0.0,0.0,83,0.00,,,0.00,Wunderground v.1.15,2013-05-22 01:22:00,
2013-05-21 21:28:00,73.8,68.7,29.85,SSE,157,0.0,0.0,84,0.00,,,0.00,Wunderground v.1.15,2013-05-22 01:28:00,
2013-05-21 21:34:00,73.5,68.4,29.85,SSE,160,0.0,0.0,84,0.00,,,0.00,Wunderground v.1.15,2013-05-22 01:34:00,
2013-05-21 21:36:00,73.5,68.4,29.85,SSE,160,0.0,0.0,84,0.00,,,0.00,Wunderground v.1.15,2013-05-22 01:36:00,
2013-05-21 21:40:00,73.3,68.2,29.85,SSE,161,0.0,0.0,84,0.00,,,0.00,Wunderground v.1.15,2013-05-22 01:40:00,
2013-05-21 21:42:00,73.3,68.5,29.85,SSW,197,0.0,1.0,85,0.00,,,0.00,Wunderground v.1.15,2013-05-22 01:42:00,
2013-05-21 21:44:00,73.2,68.4,29.85,SSW,193,0.0,1.0,85,0.00,,,0.00,Wunderground v.1.15,2013-05-22 01:44:00,
2013-05-21 21:46:00,73.1,68.3,29.85,SSE,162,0.0,1.0,85,0.00,,,0.00,Wunderground v.1.15,2013-05-22 01:46:00,
2013-05-21 21:52:00,72.9,68.1,29.85,SSE,158,0.0,0.0,85,0.00,,,0.00,Wunderground v.1.15,2013-05-22 01:52:00,
2013-05-21 21:54:00,72.9,68.1,29.85,SSE,158,0.0,0.0,85,0.00,,,0.00,Wunderground v.1.15,2013-05-22 01:54:00,
2013-05-21 21:56:00,72.8,68.0,29.85,SSE,158,0.0,0.0,85,0.00,,,0.00,Wunderground v.1.15,2013-05-22 01:56:00,
2013-05-21 21:58:00,72.7,67.9,29.85,SSE,159,0.0,0.0,85,0.00,,,0.00,Wunderground v.1.15,2013-05-22 01:58:00,
2013-05-21 22:01:00,72.6,67.8,29.85,SSE,157,0.0,0.0,85,0.00,,,0.00,Wunderground v.1.15,2013-05-22 02:01:00,
2013-05-21 22:08:00,72.4,68.0,29.85,SSE,159,0.0,0.0,86,0.00,,,0.00,Wunderground v.1.15,2013-05-22 02:08:00,
2013-05-21 22:10:00,72.4,68.0,29.86,SSE,168,0.0,0.0,86,0.00,,,0.00,Wunderground v.1.15,2013-05-22 02:10:00,
2013-05-21 22:16:00,72.3,67.9,29.85,South,188,0.0,0.0,86,0.00,,,0.00,Wunderground v.1.15,2013-05-22 02:16:00,
2013-05-21 22:18:00,72.2,67.8,29.85,South,188,0.0,0.0,86,0.00,,,0.00,Wunderground v.1.15,2013-05-22 02:18:00,
2013-05-21 22:20:00,72.2,67.8,29.85,SSE,161,0.0,0.0,86,0.00,,,0.00,Wunderground v.1.15,2013-05-22 02:20:00,
2013-05-21 22:22:00,72.2,67.8,29.85,SSE,165,0.0,0.0,86,0.00,,,0.00,Wunderground v.1.15,2013-05-22 02:22:00,
2013-05-21 22:24:00,72.1,67.7,29.85,South,173,0.0,0.0,86,0.00,,,0.00,Wunderground v.1.15,2013-05-22 02:24:00,
2013-05-21 22:26:00,72.1,67.7,29.85,South,173,0.0,0.0,86,0.00,,,0.00,Wunderground v.1.15,2013-05-22 02:26:00,
2013-05-21 22:28:00,72.1,67.7,29.85,South,183,0.0,0.0,86,0.00,,,0.00,Wunderground v.1.15,2013-05-22 02:28:00,
2013-05-21 22:30:00,72.1,67.7,29.85,South,171,0.0,0.0,86,0.00,,,0.00,Wunderground v.1.15,2013-05-22 02:30:00,
2013-05-21 22:34:00,72.0,67.6,29.85,South,186,0.0,1.0,86,0.00,,,0.00,Wunderground v.1.15,2013-05-22 02:34:00,
2013-05-21 22:36:00,72.0,67.6,29.85,SSE,168,0.0,1.0,86,0.00,,,0.00,Wunderground v.1.15,2013-05-22 02:36:00,
2013-05-21 22:40:00,72.0,67.6,29.85,South,171,0.0,0.0,86,0.00,,,0.00,Wunderground v.1.15,2013-05-22 02:40:00,
2013-05-21 22:42:00,72.0,67.6,29.85,South,171,0.0,0.0,86,0.00,,,0.00,Wunderground v.1.15,2013-05-22 02:42:00,
2013-05-21 22:46:00,71.9,67.5,29.86,South,171,0.0,0.0,86,0.00,,,0.00,Wunderground v.1.15,2013-05-22 02:46:00,
2013-05-21 22:50:00,71.9,67.5,29.86,South,171,0.0,0.0,86,0.00,,,0.00,Wunderground v.1.15,2013-05-22 02:50:00,
2013-05-21 22:52:00,71.8,67.4,29.86,SSE,165,0.0,0.0,86,0.00,,,0.00,Wunderground v.1.15,2013-05-22 02:52:00,
2013-05-21 22:54:00,71.8,67.4,29.86,South,181,0.0,0.0,86,0.00,,,0.00,Wunderground v.1.15,2013-05-22 02:54:00,
2013-05-21 22:56:00,71.8,67.4,29.86,SSE,164,0.0,0.0,86,0.00,,,0.00,Wunderground v.1.15,2013-05-22 02:56:00,
2013-05-21 23:02:00,71.7,67.3,29.86,SSE,157,0.0,0.0,86,0.00,,,0.00,Wunderground v.1.15,2013-05-22 03:02:00,
2013-05-21 23:04:00,71.7,67.3,29.85,SSE,161,0.0,0.0,86,0.00,,,0.00,Wunderground v.1.15,2013-05-22 03:04:00,
2013-05-21 23:06:00,71.6,67.2,29.86,South,171,0.0,0.0,86,0.00,,,0.00,Wunderground v.1.15,2013-05-22 03:06:00,
2013-05-21 23:08:00,71.5,67.1,29.85,South,180,0.0,0.0,86,0.00,,,0.00,Wunderground v.1.15,2013-05-22 03:08:00,
2013-05-21 23:12:00,71.5,67.1,29.85,South,169,0.0,0.0,86,0.00,,,0.00,Wunderground v.1.15,2013-05-22 03:12:00,
2013-05-21 23:16:00,71.4,67.0,29.85,SSE,167,1.0,3.0,86,0.00,,,0.00,Wunderground v.1.15,2013-05-22 03:16:00,
2013-05-21 23:19:00,71.3,66.9,29.85,SSE,165,0.0,2.0,86,0.00,,,0.00,Wunderground v.1.15,2013-05-22 03:19:00,
2013-05-21 23:22:00,71.3,66.9,29.85,SSE,165,0.0,2.0,86,0.00,,,0.00,Wunderground v.1.15,2013-05-22 03:22:00,
2013-05-21 23:24:00,71.3,66.9,29.85,South,171,0.0,2.0,86,0.00,,,0.00,Wunderground v.1.15,2013-05-22 03:24:00,
2013-05-21 23:26:00,71.3,66.9,29.85,South,171,0.0,2.0,86,0.00,,,0.00,Wunderground v.1.15,2013-05-22 03:26:00,
2013-05-21 23:30:00,71.1,66.7,29.85,South,179,0.0,0.0,86,0.00,,,0.00,Wunderground v.1.15,2013-05-22 03:30:00,
2013-05-21 23:34:00,71.0,66.9,29.85,South,179,0.0,0.0,87,0.00,,,0.00,Wunderground v.1.15,2013-05-22 03:34:00,
2013-05-21 23:36:00,71.0,66.9,29.85,South,179,0.0,0.0,87,0.00,,,0.00,Wunderground v.1.15,2013-05-22 03:36:00,
2013-05-21 23:40:00,70.8,66.7,29.85,South,182,0.0,0.0,87,0.00,,,0.00,Wunderground v.1.15,2013-05-22 03:40:00,
2013-05-21 23:44:00,70.7,66.6,29.85,SSE,160,0.0,0.0,87,0.00,,,0.00,Wunderground v.1.15,2013-05-22 03:44:00,
2013-05-21 23:46:00,70.7,66.6,29.85,SSE,167,0.0,0.0,87,0.00,,,0.00,Wunderground v.1.15,2013-05-22 03:46:00,
2013-05-21 23:48:00,70.7,67.0,29.85,SE,142,0.0,0.0,88,0.00,,,0.00,Wunderground v.1.15,2013-05-22 03:48:00,
2013-05-21 23:50:00,70.6,66.9,29.85,SE,144,0.0,0.0,88,0.00,,,0.00,Wunderground v.1.15,2013-05-22 03:50:00,
2013-05-21 23:52:00,70.6,66.9,29.85,SSE,161,0.0,0.0,88,0.00,,,0.00,Wunderground v.1.15,2013-05-22 03:52:00,
2013-05-21 23:56:00,70.5,66.8,29.86,SSE,160,0.0,0.0,88,0.00,,,0.00,Wunderground v.1.15,2013-05-22 03:56:00,
2013-05-21 23:58:00,70.4,66.7,29.86,SSE,162,0.0,0.0,88,0.00,,,0.00,Wunderground v.1.15,2013-05-22 03:58:00,